Theta_e
302 304 304 302 303 293 293 295 293 295 295 294 291 293 290 290 287 285 290 293 294 298 301 305 306 307 310 315 316 317 317 318 320 319 321 323 325 327 328 329 330 332 332 333 333 334 334 335 336 337 339 341 342 343 343 344 345 345 346 348 348 349 350
301 303 305 303 304 298 293 293 294 295 298 297 293 286 287 287 282 284 288 290 290 295 291 302 306 305 307 310 314 316 317 318 317 318 319 321 323 325 328 329 331 332 332 333 333 334 334 335 336 337 339 341 342 343 343 343 344 344 345 346 348 349 349
300 301 302 299 302 300 299 294 298 298 287 289 288 287 285 282 283 282 284 289 291 293 294 300 303 305 306 308 311 313 315 317 317 318 319 320 322 324 325 327 329 330 331 332 333 333 334 335 337 337 339 340 341 342 343 343 343 344 345 346 348 349 350
299 300 299 293 297 300 301 297 297 297 293 292 287 290 285 287 282 284 282 288 289 295 296 301 305 306 308 308 309 312 315 317 318 319 320 320 320 322 324 326 327 329 331 332 332 333 333 334 335 336 337 339 340 341 342 343 344 345 345 346 347 347 349
298 294 296 297 297 295 295 293 292 295 297 294 296 292 292 287 283 282 283 283 285 291 298 303 306 308 309 309 310 312 314 317 318 320 321 321 321 321 323 325 326 328 330 331 332 333 334 334 336 337 337 338 339 341 341 342 342 343 344 345 346 347 348
292 294 299 301 300 300 297 297 294 294 292 290 288 286 290 290 289 282 282 286 288 291 302 306 307 309 310 311 311 312 314 316 318 320 321 322 322 322 323 324 326 327 328 330 332 333 334 334 334 335 336 337 338 339 341 342 342 342 343 344 346 347 348
293 296 300 303 304 303 301 299 297 296 292 290 289 284 287 290 289 292 287 285 291 297 302 306 307 308 309 311 312 312 314 315 317 319 320 322 323 323 323 324 325 326 327 329 331 332 333 333 334 334 336 336 337 339 340 342 342 342 343 344 346 347 348
295 297 297 298 299 301 299 299 298 296 294 295 295 292 288 291 288 291 289 288 288 295 303 305 307 308 308 310 310 312 314 314 316 317 319 321 322 323 325 325 325 326 327 328 330 331 332 333 333 334 335 336 337 338 340 341 342 342 343 344 345 347 347
290 293 295 295 297 298 296 297 299 298 299 297 293 291 291 291 290 292 288 287 290 300 307 307 306 306 306 308 308 311 312 313 314 316 318 320 322 324 324 324 325 325 325 326 328 330 332 333 333 334 335 336 336 337 339 340 342 343 344 345 345 346 346
283 283 285 286 290 292 294 296 298 300 298 296 293 293 290 288 290 292 289 288 288 294 300 304 304 305 306 307 308 311 310 312 313 314 317 320 321 322 323 325 325 324 325 327 328 330 331 332 333 334 335 336 336 337 339 340 341 343 344 345 345 345 346
286 288 290 293 297 293 294 295 297 298 299 299 297 294 290 290 288 290 292 292 292 297 301 301 303 304 306 307 306 308 311 311 312 314 316 319 320 322 323 325 326 326 326 326 327 329 330 332 333 334 334 335 336 337 338 340 341 343 344 345 346 346 346
293 295 294 297 298 294 295 295 296 297 297 298 297 294 293 293 289 290 294 293 295 295 297 298 300 302 302 302 302 303 308 311 312 316 318 325 320 322 323 324 325 325 326 327 327 328 330 331 333 334 335 335 336 337 338 339 341 342 344 345 345 346 346
296 296 296 297 296 296 296 296 297 296 296 297 296 296 296 295 295 293 295 294 295 296 297 299 300 302 304 304 304 304 307 308 310 311 313 315 318 320 321 323 325 326 326 327 327 328 329 331 332 333 334 335 337 338 339 340 341 342 344 345 345 345 346
294 295 296 297 295 295 295 296 296 298 297 296 297 298 297 297 297 298 296 296 296 298 299 299 300 301 302 303 307 310 310 308 310 311 312 313 316 319 320 322 324 326 327 328 328 329 329 330 331 332 333 335 336 337 338 339 341 342 344 345 345 345 345
292 294 296 295 295 294 293 295 296 297 298 298 298 298 298 298 297 298 294 297 297 299 300 302 303 303 306 308 305 306 307 308 309 310 311 313 315 317 320 322 324 326 327 328 329 329 330 330 331 332 333 335 336 337 338 339 341 343 344 345 345 345 345
288 293 294 295 295 295 293 293 296 296 296 295 297 296 298 296 295 296 294 293 295 300 301 301 301 302 304 304 304 303 304 307 311 311 312 313 315 317 319 321 323 325 326 327 328 329 330 331 332 332 334 335 336 336 338 339 341 343 344 344 345 345 346
285 292 294 294 294 292 292 293 296 298 297 297 298 299 300 301 300 296 294 296 299 301 304 302 303 301 301 302 305 307 309 310 311 312 313 313 314 317 320 321 324 324 325 327 329 330 331 332 332 333 335 335 336 337 338 340 342 343 343 344 345 346 347
286 291 292 293 290 285 289 299 301 299 298 297 295 296 297 299 301 300 301 301 301 301 302 301 302 302 301 304 314 317 319 319 318 316 316 315 315 317 319 322 323 325 326 328 329 330 332 333 334 335 337 336 337 339 339 341 342 343 343 344 345 346 347
285 290 291 288 283 288 297 299 301 301 301 299 298 298 296 297 299 302 300 300 300 301 302 303 302 310 315 321 325 326 328 326 326 325 324 323 324 322 320 320 323 325 327 328 329 330 331 333 335 336 336 337 339 339 340 341 342 343 344 344 345 346 346
289 287 286 281 284 293 297 299 300 302 301 300 299 297 301 311 302 302 301 299 301 301 301 301 312 321 323 324 325 327 329 330 332 331 331 332 333 332 330 324 322 324 325 327 328 329 334 336 336 337 337 339 339 339 341 341 342 343 344 344 345 346 346
284 285 285 287 293 293 295 298 299 300 297 297 297 294 296 309 313 306 303 302 300 300 300 307 319 322 319 317 320 327 331 331 334 335 334 334 334 335 335 335 329 325 326 328 328 332 333 334 336 337 338 340 340 341 341 341 342 343 344 344 345 346 347
290 285 283 284 284 284 289 298 310 314 314 313 310 299 296 308 316 311 305 303 304 305 305 317 320 317 315 312 316 322 331 333 334 336 336 337 336 337 337 338 338 337 333 331 333 331 332 333 336 337 338 340 340 340 340 341 341 341 342 343 345 346 347
289 287 283 282 283 286 297 305 311 314 315 314 313 300 295 306 316 316 309 304 307 305 310 318 315 311 308 307 312 318 330 333 334 333 335 336 337 337 337 337 337 338 336 333 334 335 333 333 335 338 339 339 339 339 340 340 341 341 341 343 344 346 347
288 287 285 284 288 289 302 309 312 313 315 314 302 291 292 303 315 316 314 309 309 306 314 318 313 309 305 308 315 325 331 332 332 332 332 333 334 335 337 338 339 340 339 336 335 334 335 338 338 338 338 338 338 339 339 340 340 340 342 343 345 346 348
290 291 288 289 291 300 309 311 313 314 315 306 294 290 295 309 316 317 318 315 311 309 316 316 312 315 320 320 328 331 330 330 330 332 333 333 334 334 336 337 339 340 340 340 340 340 340 340 339 338 339 338 337 338 338 339 339 341 343 345 345 346 347
290 292 290 290 290 298 311 314 314 315 306 294 292 298 315 316 317 318 320 318 316 315 317 319 324 326 329 330 330 329 329 328 329 330 331 332 334 335 337 338 338 339 339 340 341 341 341 343 342 341 340 338 338 338 338 338 340 343 344 345 345 345 346
299 295 290 287 284 298 313 313 313 316 305 302 312 317 320 324 322 322 322 321 322 324 324 326 327 327 327 328 327 327 328 328 328 329 330 331 331 333 335 336 338 338 337 338 338 339 340 341 341 341 342 340 340 339 338 339 343 345 345 345 345 345 345
293 294 291 290 302 309 314 312 305 310 312 315 316 318 319 321 322 323 323 324 326 327 326 325 325 326 326 326 327 327 328 329 330 331 332 332 333 334 336 337 337 338 336 337 337 337 338 340 340 340 341 341 341 340 340 345 345 345 347 345 345 345 344
299 296 301 309 313 314 314 313 313 314 315 317 318 321 322 322 323 326 325 325 327 327 326 326 326 325 326 326 327 327 328 329 330 330 331 332 332 333 333 334 336 337 336 335 335 336 336 338 340 339 340 339 340 339 340 343 346 347 346 346 344 343 344
311 312 313 315 313 312 312 315 315 312 314 316 318 320 321 323 325 327 325 326 326 327 327 325 325 325 325 326 327 328 329 329 330 332 332 332 333 333 334 334 334 333 334 334 334 333 333 335 337 339 340 340 338 338 341 342 345 348 348 346 344 344 344
301 295 309 310 311 312 313 313 315 314 312 313 316 317 317 319 322 324 328 327 326 326 327 325 324 324 325 325 325 327 328 329 330 330 331 331 331 331 331 332 333 332 332 331 330 330 330 331 334 337 338 339 339 339 339 341 344 347 349 348 346 345 345
300 299 307 311 315 312 314 314 313 312 310 311 314 316 318 319 320 322 324 325 324 325 323 324 323 323 325 324 325 326 327 328 329 330 331 331 331 331 331 332 332 332 332 331 331 331 331 331 332 335 337 338 339 339 339 341 343 345 345 344 346 347 348
305 311 312 313 314 312 312 315 316 317 313 311 311 312 314 316 316 317 319 321 320 321 321 323 324 323 324 325 325 326 326 328 329 329 330 331 332 333 332 332 333 333 333 333 333 333 333 333 333 335 336 337 338 339 339 339 340 341 340 341 342 342 343
300 300 305 311 305 304 309 313 314 315 317 314 312 313 312 313 314 316 317 317 320 321 322 323 324 323 324 325 326 326 327 327 328 329 330 331 332 332 334 334 334 334 334 334 333 333 334 335 335 336 337 338 338 339 339 339 338 337 337 337 336 335 336
299 308 312 312 310 309 312 313 315 316 317 316 313 312 312 313 313 315 316 315 316 317 317 319 322 322 323 324 326 325 325 326 328 329 330 330 330 331 332 332 332 333 334 335 334 334 334 335 336 337 337 337 337 338 339 338 337 335 336 335 334 333 333
312 314 313 313 311 309 310 313 314 315 316 316 314 314 315 314 314 315 314 315 315 314 315 314 315 317 318 321 323 322 323 325 326 327 329 330 330 331 331 331 331 331 332 332 332 333 334 335 335 336 336 337 337 338 338 337 337 335 335 335 332 332 331
309 315 315 314 313 312 313 314 315 316 316 315 315 316 315 315 316 317 315 314 314 314 313 313 314 316 317 318 319 319 321 322 323 325 326 326 327 327 328 329 328 329 330 331 332 333 333 334 334 335 335 336 338 337 337 336 335 334 333 333 332 331 331
Wind_Speed
13 15 8 6 11 9 5 9 13 13 8 5 3 3 1 2 3 8 2 4 6 7 5 6 5 8 12 12 15 15 17 19 15 9 12 15 17 17 18 19 19 20 18 17 17 17 17 17 16 17 18 18 19 18 17 18 18 16 18 18 18 17 16
9 6 12 7 10 7 6 9 8 4 2 4 6 6 2 3 6 7 1 7 4 3 10 3 4 8 12 11 14 16 17 18 12 13 13 15 18 19 21 21 20 20 19 20 19 18 18 18 19 20 20 18 17 17 18 19 18 19 18 18 17 16 16
8 2 6 4 6 9 11 9 7 10 4 9 2 3 10 5 7 3 3 2 5 8 6 1 6 7 11 11 11 11 14 13 13 14 15 16 16 14 15 17 17 17 17 18 19 19 19 19 19 19 19 18 16 16 17 18 20 21 20 17 16 14 15
6 6 8 10 9 6 1 6 9 3 6 3 7 9 3 4 6 0 6 1 9 6 6 8 11 12 12 13 11 13 16 16 15 15 15 16 14 16 18 18 18 19 20 21 21 21 20 19 18 18 17 15 17 17 17 17 17 14 13 14 15 16 16
5 7 6 12 11 12 7 4 6 1 1 2 5 2 8 6 3 5 2 7 4 6 7 9 11 12 13 13 14 13 14 15 17 18 18 15 16 17 18 19 19 20 20 20 20 20 19 19 17 17 16 18 19 17 17 18 18 17 17 17 16 15 14
7 2 8 14 14 12 10 11 10 9 8 5 8 9 2 4 6 5 3 13 2 6 4 10 11 11 13 14 13 13 12 13 15 18 18 16 14 17 18 19 19 19 19 19 19 18 16 15 15 15 15 16 16 16 17 17 16 15 17 16 16 15 14
5 6 10 14 17 14 11 11 10 10 4 5 4 7 8 0 5 3 3 3 12 7 8 10 10 9 10 11 12 13 12 13 13 14 13 10 12 14 16 17 17 18 18 18 19 19 18 19 18 18 16 17 17 19 18 16 17 18 18 18 17 15 14
2 4 4 5 4 9 10 8 6 10 12 12 12 7 6 7 1 4 4 9 5 4 6 10 11 9 8 6 7 13 12 10 11 13 10 9 10 12 13 13 13 14 15 14 13 14 15 15 14 16 16 17 17 17 18 17 19 20 18 16 15 14 14
4 5 4 5 1 2 5 9 10 11 11 13 5 5 2 4 10 9 6 18 2 2 1 4 4 4 5 9 9 9 11 8 8 9 8 7 8 5 6 10 13 13 12 11 13 15 16 16 16 16 16 17 17 17 17 18 19 18 16 15 15 16 16
10 11 12 9 8 7 1 3 10 14 17 14 7 14 5 10 5 8 9 8 5 5 3 4 6 5 6 9 7 4 6 8 7 6 5 7 7 10 11 11 11 13 15 15 13 14 14 16 17 16 16 17 17 17 18 19 18 16 17 15 16 16 16
6 2 3 5 1 5 11 7 9 12 14 16 14 4 6 15 5 10 10 5 3 3 5 5 6 5 8 9 7 8 8 9 8 5 6 9 11 12 14 15 15 13 10 13 16 16 17 17 17 16 17 17 17 17 18 17 16 16 16 15 16 16 17
4 3 7 10 7 8 8 9 13 10 12 14 17 16 17 6 6 12 10 7 6 7 5 6 6 6 5 7 7 7 7 7 4 2 3 5 5 6 7 8 11 14 17 16 15 16 16 16 16 16 16 17 18 18 18 16 16 15 14 15 16 16 16
6 7 11 11 9 6 7 10 13 14 14 13 20 20 11 11 14 20 7 6 7 6 9 10 11 10 10 11 11 6 5 4 5 6 6 8 10 9 10 12 13 14 16 15 16 16 16 16 16 17 15 15 13 13 14 14 15 18 17 17 17 17 17
9 9 9 9 8 5 7 10 12 17 16 20 20 17 14 16 15 13 7 12 12 9 9 10 10 9 9 4 1 1 1 6 7 5 5 7 9 10 13 13 14 15 17 17 16 16 15 16 17 17 15 15 16 17 16 16 16 15 13 15 16 17 18
8 11 7 4 6 6 9 12 12 15 20 21 20 15 15 13 13 11 5 10 13 8 6 8 8 4 1 1 5 7 6 5 5 5 7 7 8 9 10 11 13 15 15 15 15 15 16 17 18 18 17 18 17 18 16 16 16 15 16 16 16 17 19
7 5 6 13 13 12 9 13 17 18 18 21 17 15 11 10 12 9 6 7 9 7 6 8 7 5 5 7 8 6 6 7 6 7 10 9 10 11 12 12 10 11 12 13 14 16 17 18 18 16 16 15 15 16 16 16 16 15 16 16 18 18 18
3 10 4 12 13 9 11 18 21 19 11 8 8 11 12 17 13 11 14 16 6 10 7 7 10 8 8 7 5 4 5 4 4 7 9 10 9 7 7 8 10 11 13 14 16 18 17 17 16 18 17 16 17 17 16 17 13 14 17 18 18 17 15
5 12 10 6 4 6 20 6 3 8 15 11 9 10 10 10 15 11 10 10 9 9 6 9 11 12 8 5 2 2 1 5 8 7 7 9 8 5 6 8 10 11 9 9 13 16 17 18 19 19 17 19 19 18 17 12 13 15 16 16 16 16 15
5 8 7 3 6 16 0 13 2 10 11 11 14 13 8 10 13 1 3 6 9 13 14 15 10 3 3 4 5 2 1 0 2 6 6 5 5 6 5 6 7 9 11 11 9 8 10 12 11 9 10 13 10 8 9 13 15 15 16 16 15 15 16
2 4 2 3 11 6 11 15 13 5 10 11 11 15 10 3 7 8 7 8 11 12 11 5 5 9 7 4 2 3 2 3 3 5 6 7 6 6 6 6 7 7 8 10 11 10 5 4 5 8 10 6 7 9 9 12 12 13 14 15 15 14 14
3 5 4 8 10 16 10 3 3 6 3 2 9 13 11 7 8 11 10 10 9 6 4 7 7 7 5 4 2 1 5 4 5 5 6 6 6 6 6 5 8 7 6 9 10 7 7 7 7 8 7 9 9 8 9 9 9 10 11 13 14 15 16
7 4 6 5 3 4 3 1 5 3 6 7 12 7 12 6 11 12 14 13 9 6 4 8 9 5 7 4 1 1 4 5 6 5 5 6 5 6 7 6 6 5 3 3 4 8 8 8 8 8 10 10 11 11 12 13 15 15 15 16 15 15 16
2 4 5 4 4 6 2 9 11 12 8 11 12 1 14 6 14 11 13 13 11 12 13 10 8 8 9 7 6 1 4 4 5 5 6 7 7 7 8 8 8 8 6 1 2 4 6 8 8 10 11 13 13 13 14 14 14 15 17 17 15 16 16
6 5 6 8 3 5 4 11 14 16 11 9 1 4 12 3 6 7 8 12 12 11 14 16 12 13 10 9 7 2 4 3 4 5 6 7 7 8 8 9 8 7 6 6 8 6 3 1 3 7 10 11 13 12 10 9 10 13 15 16 16 15 14
11 11 8 6 7 2 7 14 16 16 12 1 6 14 3 2 9 8 10 11 11 12 13 13 13 2 2 5 7 6 5 5 5 5 6 5 5 7 9 9 9 8 10 10 9 8 5 5 1 6 7 8 10 10 10 10 14 16 15 11 10 10 10
11 8 9 10 6 2 10 13 14 11 3 4 10 3 8 11 7 8 9 10 8 8 11 5 6 9 8 9 7 7 5 6 5 6 5 5 4 6 7 8 8 8 9 11 11 11 11 9 8 1 6 9 7 6 8 12 15 14 10 10 10 11 12
3 3 6 3 7 1 14 15 9 7 4 4 7 13 13 5 8 2 4 6 7 11 11 10 12 12 10 9 8 7 6 6 8 8 8 8 9 9 9 11 11 8 9 11 11 10 8 10 10 9 0 4 4 6 11 13 7 4 5 7 9 11 12
6 5 7 5 0 5 8 9 3 8 8 12 13 10 9 5 4 7 2 5 6 7 14 15 12 12 13 10 8 8 8 8 8 9 8 8 9 9 10 9 9 9 9 9 9 9 10 11 11 11 11 6 4 3 5 10 8 5 2 4 6 8 10
5 6 5 3 3 2 6 6 5 8 12 12 13 6 1 4 3 4 2 9 10 9 12 12 14 13 10 11 9 9 9 8 8 8 8 8 9 9 9 9 9 9 9 10 9 11 11 12 11 11 11 11 10 9 8 8 8 7 5 3 5 8 9
1 2 5 5 2 3 5 7 6 9 11 11 7 7 5 5 4 2 2 6 9 9 8 13 10 11 11 11 10 9 8 8 8 7 6 8 8 8 8 8 10 8 7 9 11 11 11 10 9 8 8 7 8 5 5 6 7 6 6 4 5 7 7
5 3 2 2 3 0 7 9 10 9 10 10 8 8 8 6 6 5 6 6 7 8 7 11 14 11 9 11 9 8 8 9 10 10 10 10 11 12 12 10 9 9 9 10 11 11 10 9 8 7 7 6 4 2 2 3 4 6 7 5 5 5 6
5 3 6 6 5 3 6 9 10 11 12 12 10 8 7 6 6 6 7 7 8 7 11 10 12 12 10 9 9 8 8 8 8 10 9 10 10 10 9 9 10 11 12 12 12 12 10 9 9 10 9 7 6 6 5 6 4 5 6 6 6 5 5
2 2 3 4 5 6 10 13 11 9 9 9 9 8 8 8 7 8 9 8 7 8 10 9 11 13 10 9 9 9 8 8 9 10 9 9 9 8 9 9 10 10 10 12 12 12 12 10 8 9 10 9 9 9 8 7 5 5 5 5 4 4 4
6 5 4 4 5 2 6 10 12 12 12 9 6 8 10 10 9 8 9 9 8 8 8 8 9 13 10 9 8 9 8 9 9 9 9 9 10 10 9 8 9 9 10 10 11 12 10 9 8 9 10 10 9 9 7 6 7 7 6 5 5 4 3
8 3 2 3 11 9 5 9 9 8 11 10 7 6 9 10 9 8 6 7 9 9 8 6 8 9 12 11 9 10 9 9 9 9 10 10 10 10 9 10 11 11 10 9 9 9 8 8 9 9 10 10 10 10 9 8 8 8 8 7 7 6 6
7 7 6 4 8 8 6 12 8 7 7 8 6 4 6 10 10 7 6 3 7 9 10 8 6 8 10 9 10 13 13 12 11 10 9 9 9 9 8 9 9 9 9 8 8 8 7 8 8 8 7 8 9 9 8 7 6 6 6 6 6 7 7
8 6 5 11 16 13 11 12 7 5 6 8 6 7 6 10 11 10 6 5 5 9 10 10 10 8 10 10 10 11 11 11 11 11 12 12 12 10 9 10 10 9 8 8 7 7 7 7 7 7 8 9 9 8 8 7 6 6 6 5 5 5 4
Wind_Direction
175 194 164 194 151 200 201 130 204 209 129 153 267 288 204 111 5 256 187 289 293 296 322 231 217 201 209 208 215 217 225 230 226 205 203 202 203 201 200 205 207 208 207 205 205 203 203 202 200 201 201 198 197 195 194 198 200 195 194 195 196 196 198
243 196 175 176 188 130 124 191 213 81 94 119 155 225 344 226 223 263 130 197 285 214 259 280 184 193 215 207 213 217 223 231 219 214 206 203 202 201 202 204 205 205 204 203 203 204 203 201 200 202 202 199 198 197 196 197 197 196 196 195 196 196 196
195 101 147 186 221 163 175 197 165 154 199 197 262 130 236 218 241 281 284 230 242 192 236 193 197 210 220 217 217 218 227 230 223 222 216 212 207 199 200 206 206 206 206 206 205 205 204 202 202 202 201 197 197 199 201 200 200 199 195 193 194 196 196
169 162 149 202 205 256 244 92 171 178 124 193 155 196 163 142 253 224 290 226 241 202 207 192 204 204 213 213 210 211 215 217 216 219 217 211 199 198 201 202 204 205 205 205 203 204 203 202 202 202 198 196 200 202 201 203 205 200 194 194 194 197 197
123 190 190 204 190 191 195 171 185 204 215 236 143 187 193 199 188 212 233 274 272 250 206 175 205 209 213 206 211 214 216 213 212 218 216 208 200 200 202 201 202 204 205 206 206 205 204 203 202 198 193 193 200 199 201 202 200 194 194 197 195 200 195
209 193 188 199 202 192 195 190 203 181 142 141 167 247 349 175 204 228 156 255 264 268 190 186 196 218 212 215 209 217 221 220 214 219 218 206 201 204 203 202 201 202 204 204 205 204 203 200 199 196 195 197 200 198 202 201 200 198 198 197 196 197 195
192 206 209 205 204 196 194 176 205 178 169 116 138 211 220 91 251 110 164 263 257 237 191 197 200 210 221 221 207 217 221 221 225 233 233 216 211 207 204 203 202 202 202 202 200 197 196 196 197 194 193 196 198 199 199 197 197 201 199 198 196 193 193
305 287 313 323 284 207 204 208 174 168 196 199 215 210 179 186 233 229 247 250 263 264 197 209 206 211 226 239 210 217 225 225 225 229 229 206 208 210 206 203 204 205 205 201 197 197 197 198 196 195 195 197 198 199 198 197 200 202 198 196 192 192 195
225 269 336 302 15 162 214 195 204 193 197 206 200 96 89 193 205 189 152 245 233 273 284 246 274 280 256 244 234 216 232 237 224 227 227 216 219 203 193 198 201 202 201 195 197 196 194 195 195 194 195 197 197 199 197 199 203 199 197 192 191 193 195
204 202 210 212 220 219 222 253 198 205 198 194 149 219 174 218 235 178 213 246 248 274 321 246 234 244 282 273 264 281 242 249 241 236 204 193 192 197 193 196 195 197 199 197 195 195 195 195 194 193 195 197 198 199 200 201 199 192 195 191 192 192 195
224 225 252 245 228 166 213 197 202 213 212 200 203 174 174 218 194 204 227 174 229 247 208 221 234 216 229 259 261 235 235 245 243 221 206 197 196 195 192 194 197 195 191 196 198 195 195 194 193 194 194 197 198 199 202 200 196 193 191 190 191 192 194
232 273 285 292 293 284 247 191 214 208 207 210 208 205 221 124 117 244 224 184 182 234 230 231 243 252 255 252 258 272 265 248 249 298 287 274 241 219 205 199 192 191 196 197 195 195 196 196 195 196 197 197 196 197 200 197 193 191 189 190 192 194 194
310 282 277 278 282 233 251 240 211 204 207 204 214 219 209 156 207 233 213 153 190 236 227 221 213 203 210 222 229 231 246 254 246 237 217 208 214 211 202 205 198 196 196 196 196 194 195 194 193 196 196 198 201 203 202 195 192 194 189 188 191 194 196
313 296 279 283 263 262 255 248 239 220 202 212 214 216 209 201 221 233 170 179 199 207 225 222 231 212 207 220 133 88 227 253 256 266 254 233 227 213 207 205 203 202 200 196 194 192 191 190 194 194 195 195 197 198 198 193 195 196 182 191 192 195 200
314 301 305 318 339 310 266 252 235 233 225 219 212 208 214 210 236 227 165 187 213 235 222 233 246 268 333 326 279 246 234 259 273 265 252 240 237 235 229 218 208 205 203 197 193 191 193 193 194 194 195 196 196 198 196 193 195 188 185 191 193 197 204
313 300 356 330 324 312 265 249 239 229 226 226 218 211 197 187 211 213 196 221 233 261 260 256 268 288 267 245 252 272 268 252 246 242 249 239 227 224 222 220 217 212 205 198 192 195 197 197 196 195 196 196 193 199 195 195 194 183 187 192 196 200 204
257 283 345 324 315 325 298 248 230 228 228 244 247 226 193 202 186 201 211 227 193 220 220 228 252 236 250 253 256 274 303 278 241 245 247 245 245 230 225 222 217 214 208 200 197 199 198 197 196 198 193 189 195 198 195 198 182 182 191 194 197 201 199
275 294 323 302 298 240 234 283 178 189 223 214 233 238 211 208 184 220 202 211 193 204 186 196 237 229 224 203 200 198 225 299 313 293 271 269 268 251 227 218 211 208 206 213 209 204 200 199 198 197 189 192 198 196 193 179 177 189 192 197 197 200 195
282 297 315 312 213 236 353 332 302 197 201 198 217 239 218 211 214 177 160 197 195 205 203 205 214 159 142 127 109 93 18 238 281 300 311 318 318 295 268 240 224 212 202 204 215 218 216 207 201 188 194 204 198 182 174 180 188 187 193 195 198 197 196
269 323 256 225 237 257 326 302 291 257 188 197 209 237 234 223 208 192 204 205 207 207 210 200 155 143 147 128 108 84 51 54 2 343 331 328 336 331 314 284 253 215 204 204 202 209 189 175 184 194 204 190 178 185 179 186 184 191 193 196 199 194 197
196 225 216 244 299 312 320 310 26 13 347 311 207 224 243 207 189 180 203 215 218 211 199 163 152 144 118 77 72 71 40 14 15 356 323 320 328 325 315 310 285 267 233 193 192 174 172 176 177 189 155 147 158 149 174 185 184 196 197 201 202 198 200
202 248 301 311 324 267 274 233 309 329 317 306 306 253 252 217 198 189 187 203 205 192 150 155 156 146 105 130 187 321 26 26 13 4 351 343 340 342 338 341 336 328 311 260 194 170 170 173 169 147 156 159 160 170 177 183 188 194 196 204 203 201 203
156 210 229 230 234 247 218 324 320 315 317 319 298 190 246 216 190 189 181 193 191 170 161 161 148 140 161 208 224 258 34 31 20 2 355 359 359 359 7 359 343 344 330 192 150 151 159 169 176 169 165 165 173 186 192 195 197 195 198 203 198 201 203
214 222 231 248 217 262 330 324 329 320 316 314 91 195 242 205 153 173 177 190 185 182 169 157 167 159 176 199 211 138 67 44 31 12 353 354 1 5 5 12 3 356 15 70 63 69 82 67 184 175 168 172 184 189 187 177 192 207 209 205 201 202 200
221 214 249 278 286 295 349 339 324 319 317 82 163 216 266 251 170 182 184 200 189 172 160 164 169 240 98 108 103 102 83 80 45 28 13 8 9 12 19 22 13 27 43 55 60 50 27 349 283 172 165 169 184 182 171 178 201 209 211 206 202 203 197
214 211 221 235 257 232 348 334 329 316 344 193 215 264 304 290 262 177 169 168 165 169 162 147 102 124 111 100 96 88 78 77 66 43 26 26 41 33 42 39 43 51 51 49 46 38 27 20 11 232 169 175 176 168 183 202 211 211 204 198 194 193 196
185 149 204 231 256 293 3 337 344 38 13 263 306 305 303 313 316 281 126 140 153 139 115 114 121 119 110 104 100 89 76 64 56 46 34 32 32 31 33 38 39 48 56 52 44 29 21 25 22 16 35 191 188 184 199 216 233 241 226 208 200 201 202
156 169 191 205 250 300 350 13 338 329 312 297 299 295 293 331 359 318 91 103 120 129 130 133 124 117 114 111 111 97 80 70 63 56 45 38 38 38 38 41 41 48 63 60 56 46 30 25 24 29 31 22 9 7 353 353 345 337 301 223 215 212 212
144 191 186 133 167 39 17 359 327 305 307 308 294 272 339 357 333 337 347 121 120 124 120 115 121 118 115 112 106 97 84 75 66 57 44 36 35 34 31 29 28 37 50 61 66 58 48 44 39 32 30 39 42 33 348 342 347 336 301 233 210 224 225
126 68 95 141 84 33 31 34 5 335 323 317 323 11 33 8 7 23 99 100 113 118 119 114 109 111 117 108 99 89 82 78 70 64 57 46 40 38 36 30 25 30 41 48 51 59 62 52 48 49 54 57 49 8 337 343 343 339 321 278 239 229 231
134 226 164 124 164 356 48 43 14 349 335 336 351 20 19 2 353 38 87 101 95 102 94 105 109 101 100 99 92 88 81 71 64 57 49 42 35 29 26 14 18 29 36 41 37 33 32 27 39 48 61 63 77 104 49 15 9 10 15 351 296 272 256
158 194 165 193 170 124 67 56 29 353 339 340 5 20 25 15 13 40 65 82 89 91 95 99 100 98 97 95 95 86 78 71 66 63 60 59 55 46 37 25 24 26 27 28 24 26 26 17 20 21 20 19 18 25 28 29 26 49 54 41 26 359 325
230 151 164 183 152 67 46 50 35 352 341 339 356 14 27 24 35 50 62 66 82 92 99 104 106 102 92 89 88 84 72 67 63 61 56 53 51 50 47 41 38 41 37 34 30 26 19 10 13 20 16 8 4 8 11 13 23 52 60 62 70 59 28
189 176 185 176 117 297 6 44 36 350 336 332 26 46 46 40 39 39 65 66 66 82 90 98 100 103 104 95 96 92 84 81 77 70 64 60 58 56 52 51 49 51 48 42 34 27 17 11 16 14 12 5 0 0 1 6 15 31 29 41 52 56 54
181 197 144 139 111 95 72 58 43 7 340 323 329 60 77 58 30 12 37 79 84 76 52 32 90 103 110 110 104 91 80 74 73 70 69 67 63 58 54 55 52 52 52 53 52 43 31 22 21 21 21 12 3 355 355 3 9 17 16 16 12 11 19
98 134 146 150 105 114 90 67 35 27 333 323 321 7 72 87 82 37 5 29 100 99 89 71 60 86 85 82 87 87 83 80 77 73 70 68 66 64 59 61 62 59 53 49 48 49 43 43 39 34 29 23 21 13 6 3 9 18 16 24 22 10 11
142 142 121 108 105 108 100 92 78 29 343 334 341 357 41 73 69 70 26 330 31 82 84 72 58 51 76 75 75 78 82 75 65 64 62 56 50 44 42 43 45 48 49 45 42 40 40 41 38 31 34 33 32 28 28 22 14 28 26 36 53 46 46